Hourly Weather Roundup
Issued by NWS

Home | Current Version | Previous Version | Text Only | Print | Product List | Glossary On
Versions: 1 2 3 4 5 6 7 8 9 10 11 12 13 14 15 16 17 18 19 20 21 22 23 24 25 26 27 28 29 30 31 32 33 34 35 36 37 38 39 40 41 42 43 44 45 46 47 48 49 50
140
NZUS43 KILX 221210
HWRCRS

NWR Hourly Weather Roundup
National Weather Service Lincoln IL
700 AM CDT THU JUN 22 2017


CITY           SKY/WX    TMP DP  RH WIND       PRES   REMARKS
Champaign      CLOUDY    73  68  84 S14       29.93R
Lawrenceville  MOSUNNY   74  70  87 S9        29.96S
Peoria         CLOUDY    73  69  87 S12       29.87S
Springfield    CLOUDY    76  70  82 S9        29.89F
$$


CITY           SKY/WX    TMP DP  RH WIND       PRES   REMARKS
Bloomington    CLOUDY    72  68  87 S14       29.91R
Danville       CLOUDY    73  68  84 SW8       29.92R
Decatur        SUNNY     73  69  87 S13       29.91S
Effingham      MOSUNNY   73  70  91 SE5       29.95F
Flora          CLOUDY    74  70  87 S6        29.95S
Galesburg      CLOUDY    71  66  85 S8        29.86S
Jacksonville   CLOUDY    73  68  83 S10       29.89R
Lacon          CLOUDY    74  68  81 SW7       29.85S
La Salle       CLOUDY    75  67  74 S7        29.87R
Lincoln        CLOUDY    72  70  94 S6        29.89F
Litchfield     SUNNY     72  69  91 S8        29.91R

CITY           SKY/WX    TMP DP  RH WIND       PRES   REMARKS
Macomb         CLOUDY    72  67  83 S7        29.88R
Mattoon        SUNNY     73  70  90 S7        29.93R
Moline         MOSUNNY   74  66  76 CALM      29.82R
Olney          CLOUDY    73  73 100 S6        29.95S
Paris          SUNNY     72  70  94 S7        29.97R
Pontiac        MOSUNNY   75  71  88 S15       29.89S
Quincy         CLOUDY    73  68  84 S9        29.86S
Rantoul        MOSUNNY   75  70  85 S6        29.93R
Robinson       MOSUNNY   71  69  93 S6        29.96S
Taylorville    MOSUNNY   72  69  89 S7        29.91F
Terre Haute    MOSUNNY   74  67  78 S9        29.96S
$$


CITY           SKY/WX    TMP DP  RH WIND       PRES   REMARKS
Burlington     CLOUDY    73  68  84 S12       29.83F
Chicago        CLOUDY    77  66  68 SW14      29.85S
Des Moines     PTSUNNY   75  61  61 S13       29.72R
Evansville     PTSUNNY   74  68  81 CALM      29.97S
Indianapolis   PTSUNNY   74  68  81 S12       29.97R
Kansas City    MOSUNNY   71  65  81 S13       29.78F
Milwaukee      CLOUDY    74  66  76 SW10      29.82R
St Louis       PTSUNNY   77  68  73 S9        29.88F
$$





USA.gov is the U.S. government's official web portal to all federal, state and local government web resources and services.